| time (UTC) | temp F | wind direction | speed MPH | gust MPH | rain 1hr in | rain 24hr in | rain mn in | humidity % | barometer mb |
| 20260504034913 | 47 | 229 | 0.0 | 0.0 | 0.00 | 0.00 | 0.00 | 76 | 1017.5 |
| 20260504034407 | 47 | 229 | 0.0 | 0.0 | 0.00 | 0.00 | 0.00 | 75 | 1017.5 |
| 20260504033900 | 47 | 229 | 0.0 | 0.0 | 0.00 | 0.00 | 0.00 | 76 | 1017.4 |
| 20260504033358 | 47 | 229 | 0.0 | 0.0 | 0.00 | 0.00 | 0.00 | 75 | 1017.3 |
| 20260504032859 | 47 | 229 | 0.0 | 0.0 | 0.00 | 0.00 | 0.00 | 74 | 1017.4 |
| 20260504032619 | 47 | 229 | 0.0 | 0.0 | 0.00 | 0.00 | 0.00 | 74 | 1017.4 |
| 20260504031859 | 47 | 229 | 0.0 | 0.0 | 0.00 | 0.00 | 0.00 | 73 | 1017.3 |
| 20260504031621 | 47 | 229 | 0.0 | 0.0 | 0.00 | 0.00 | 0.00 | 74 | 1017.4 |
| 20260504030857 | 47 | 229 | 0.0 | 0.0 | 0.00 | 0.00 | 0.00 | 73 | 1017.3 |
| 20260504030359 | 47 | 229 | 0.0 | 0.0 | 0.00 | 0.00 | 0.00 | 73 | 1017.4 |
| 20260504025858 | 47 | 229 | 0.0 | 0.0 | 0.00 | 0.00 | 0.00 | 71 | 1017.3 |
| 20260504025355 | 47 | 229 | 0.0 | 0.0 | 0.00 | 0.00 | 0.00 | 71 | 1017.3 |
| 20260504024855 | 47 | 229 | 0.0 | 0.0 | 0.00 | 0.00 | 0.00 | 75 | 1017.4 |
| 20260504024354 | 47 | 229 | 0.0 | 0.0 | 0.00 | 0.00 | 0.00 | 74 | 1017.3 |
| 20260504024121 | 47 | 229 | 0.0 | 0.0 | 0.00 | 0.00 | 0.00 | 71 | 1017.4 |
| 20260504023612 | 47 | 229 | 0.0 | 0.0 | 0.00 | 0.00 | 0.00 | 71 | 1017.4 |
| 20260504022855 | 48 | 229 | 0.0 | 0.0 | 0.00 | 0.00 | 0.00 | 71 | 1017.4 |
| 20260504022349 | 48 | 229 | 0.0 | 0.0 | 0.00 | 0.00 | 0.00 | 72 | 1017.4 |
| 20260504021849 | 48 | 229 | 0.0 | 0.0 | 0.00 | 0.00 | 0.00 | 72 | 1017.4 |
| 20260504021352 | 48 | 229 | 0.0 | 0.0 | 0.00 | 0.00 | 0.00 | 71 | 1017.4 |
| 20260504020850 | 48 | 229 | 0.0 | 0.0 | 0.00 | 0.00 | 0.00 | 71 | 1017.5 |
| 20260504020350 | 48 | 229 | 0.0 | 0.0 | 0.00 | 0.00 | 0.00 | 70 | 1017.3 |
| 20260504020108 | 48 | 229 | 0.0 | 0.0 | 0.00 | 0.00 | 0.00 | 70 | 1017.3 |
| 20260504015350 | 49 | 229 | 0.0 | 0.0 | 0.00 | 0.00 | 0.00 | 70 | 1017.3 |
| 20260504014851 | 49 | 229 | 0.0 | 0.0 | 0.00 | 0.00 | 0.00 | 73 | 1017.2 |
| 20260504014349 | 49 | 229 | 0.0 | 0.0 | 0.00 | 0.00 | 0.00 | 71 | 1017.2 |
| 20260504013850 | 49 | 229 | 0.0 | 0.0 | 0.00 | 0.00 | 0.00 | 71 | 1017.1 |
| 20260504013606 | 49 | 229 | 0.0 | 0.0 | 0.00 | 0.00 | 0.00 | 69 | 1017.0 |
| 20260504013327 | 49 | 229 | 0.0 | 0.0 | 0.00 | 0.00 | 0.00 | 67 | 1017.1 |
| 20260504012345 | 50 | 229 | 0.0 | 0.0 | 0.00 | 0.00 | 0.00 | 67 | 1017.0 |
| 20260504011844 | 50 | 229 | 0.0 | 0.0 | 0.00 | 0.00 | 0.00 | 66 | 1017.0 |
| 20260504011343 | 50 | 229 | 0.0 | 0.0 | 0.00 | 0.00 | 0.00 | 65 | 1016.9 |
| 20260504010842 | 51 | 229 | 0.0 | 0.0 | 0.00 | 0.00 | 0.00 | 65 | 1016.9 |
| 20260504010342 | 51 | 229 | 0.0 | 0.0 | 0.00 | 0.00 | 0.00 | 65 | 1016.9 |
| 20260504005839 | 51 | 229 | 0.0 | 0.0 | 0.00 | 0.00 | 0.00 | 62 | 1016.9 |
| 20260504005339 | 52 | 229 | 0.0 | 0.0 | 0.00 | 0.00 | 0.00 | 61 | 1016.9 |
| 20260504004839 | 52 | 229 | 0.0 | 0.0 | 0.00 | 0.00 | 0.00 | 61 | 1016.9 |
| 20260504004339 | 53 | 229 | 0.0 | 0.0 | 0.00 | 0.00 | 0.00 | 61 | 1016.8 |
| 20260504003841 | 53 | 229 | 0.0 | 0.0 | 0.00 | 0.00 | 0.00 | 60 | 1016.8 |
| 20260504003339 | 53 | 229 | 0.0 | 0.0 | 0.00 | 0.00 | 0.00 | 58 | 1016.8 |
| 20260504003059 | 54 | 229 | 0.0 | 0.0 | 0.00 | 0.00 | 0.00 | 55 | 1016.7 |
| 20260504002339 | 55 | 229 | 0.0 | 0.0 | 0.00 | 0.00 | 0.00 | 54 | 1016.6 |
| 20260504001834 | 55 | 229 | 0.0 | 0.0 | 0.00 | 0.00 | 0.00 | 53 | 1016.6 |
| 20260504001328 | 56 | 229 | 0.0 | 0.0 | 0.00 | 0.00 | 0.00 | 51 | 1016.4 |
| 20260504000822 | 56 | 229 | 0.0 | 0.0 | 0.00 | 0.00 | 0.00 | 48 | 1016.4 |
| 20260504000316 | 57 | 229 | 0.0 | 0.0 | 0.00 | 0.00 | 0.00 | 45 | 1016.3 |
| 20260503235809 | 58 | 229 | 0.0 | 0.0 | 0.00 | 0.00 | 0.00 | 44 | 1016.3 |
| 20260503235304 | 58 | 229 | 0.0 | 0.0 | 0.00 | 0.00 | 0.00 | 44 | 1016.3 |
| 20260503234758 | 59 | 229 | 0.0 | 0.0 | 0.00 | 0.00 | 0.00 | 41 | 1016.3 |
| 20260503234252 | 60 | 229 | 0.0 | 0.0 | 0.00 | 0.00 | 0.00 | 41 | 1016.3 |
| 20260503233745 | 60 | 229 | 0.0 | 0.0 | 0.00 | 0.00 | 0.00 | 38 | 1016.2 |
| 20260503233503 | 60 | 229 | 0.0 | 1.0 | 0.00 | 0.00 | 0.00 | 41 | 1016.2 |
| 20260503232733 | 61 | 229 | 0.0 | 1.0 | 0.00 | 0.00 | 0.00 | 38 | 1016.2 |
| 20260503232452 | 61 | 229 | 0.0 | 2.0 | 0.00 | 0.00 | 0.00 | 36 | 1016.2 |
| 20260503231722 | 62 | 229 | 1.0 | 2.0 | 0.00 | 0.00 | 0.00 | 36 | 1016.1 |
| 20260503231215 | 62 | 229 | 1.0 | 2.0 | 0.00 | 0.00 | 0.00 | 35 | 1016.1 |
| 20260503230939 | 62 | 229 | 0.0 | 1.0 | 0.00 | 0.00 | 0.00 | 34 | 1016.1 |
| 20260503230204 | 62 | 229 | 0.0 | 1.0 | 0.00 | 0.00 | 0.00 | 37 | 1016.1 |
| 20260503225658 | 62 | 229 | 0.0 | 2.0 | 0.00 | 0.00 | 0.00 | 35 | 1016.0 |
| 20260503225152 | 63 | 229 | 1.0 | 2.0 | 0.00 | 0.00 | 0.00 | 35 | 1016.1 |
| 20260503224726 | 63 | 229 | 1.0 | 3.0 | 0.00 | 0.00 | 0.00 | 33 | 1016.1 |
| 20260503223732 | 63 | 229 | 1.0 | 3.0 | 0.00 | 0.00 | 0.00 | 32 | 1016.1 |
| 20260503222622 | 63 | 0 | 1.0 | 3.0 | 0.00 | 0.00 | 0.00 | 32 | 1016.0 |
| 20260503222115 | 63 | 0 | 1.0 | 5.0 | 0.00 | 0.00 | 0.00 | 33 | 1016.1 |
| 20260503221610 | 63 | 355 | 1.0 | 5.0 | 0.00 | 0.00 | 0.00 | 32 | 1016.1 |
| 20260503221104 | 63 | 0 | 1.0 | 4.0 | 0.00 | 0.00 | 0.00 | 31 | 1016.2 |
| 20260503220558 | 63 | 0 | 1.0 | 4.0 | 0.00 | 0.00 | 0.00 | 32 | 1016.1 |
| 20260503220052 | 63 | 274 | 1.0 | 2.0 | 0.00 | 0.00 | 0.00 | 33 | 1016.3 |
| 20260503220028 | 64 | 275 | 1.0 | 3.0 | 0.00 | 0.00 | 0.00 | 31 | 1016.1 |
| 20260503215040 | 64 | 274 | 1.0 | 4.0 | 0.00 | 0.00 | 0.00 | 32 | 1016.1 |
| 20260503214539 | 64 | 271 | 1.0 | 4.0 | 0.00 | 0.00 | 0.00 | 32 | 1016.1 |
| 20260503214039 | 64 | 315 | 1.0 | 3.0 | 0.00 | 0.00 | 0.00 | 32 | 1016.1 |
| 20260503213756 | 64 | 323 | 1.0 | 5.0 | 0.00 | 0.00 | 0.00 | 32 | 1015.9 |
| 20260503213300 | 64 | 36 | 2.0 | 5.0 | 0.00 | 0.00 | 0.00 | 31 | 1016.1 |
| 20260503212538 | 64 | 185 | 2.0 | 4.0 | 0.00 | 0.00 | 0.00 | 32 | 1016.0 |
| 20260503212036 | 64 | 212 | 2.0 | 5.0 | 0.00 | 0.00 | 0.00 | 31 | 1016.0 |
| 20260503211537 | 64 | 217 | 1.0 | 5.0 | 0.00 | 0.00 | 0.00 | 32 | 1016.1 |
| 20260503211037 | 64 | 240 | 1.0 | 3.0 | 0.00 | 0.00 | 0.00 | 35 | 1016.0 |
| 20260503210534 | 64 | 240 | 1.0 | 3.0 | 0.00 | 0.00 | 0.00 | 32 | 1016.0 |
| 20260503210035 | 64 | 209 | 1.0 | 2.0 | 0.00 | 0.00 | 0.00 | 31 | 1016.0 |
| 20260503205534 | 64 | 290 | 1.0 | 4.0 | 0.00 | 0.00 | 0.00 | 34 | 1015.9 |
| 20260503205035 | 64 | 291 | 1.0 | 4.0 | 0.00 | 0.00 | 0.00 | 32 | 1015.9 |
| 20260503204535 | 64 | 226 | 2.0 | 8.0 | 0.00 | 0.00 | 0.00 | 33 | 1016.0 |
| 20260503204035 | 64 | 167 | 2.0 | 8.0 | 0.00 | 0.00 | 0.00 | 33 | 1015.9 |
| 20260503203531 | 65 | 232 | 1.0 | 8.0 | 0.00 | 0.00 | 0.00 | 33 | 1015.7 |
| 20260503203031 | 65 | 308 | 1.0 | 5.0 | 0.00 | 0.00 | 0.00 | 33 | 1015.8 |
| 20260503202532 | 65 | 0 | 2.0 | 5.0 | 0.00 | 0.00 | 0.00 | 31 | 1016.0 |
| 20260503202248 | 65 | 226 | 2.0 | 6.0 | 0.00 | 0.00 | 0.00 | 33 | 1016.0 |
| 20260503201530 | 65 | 208 | 2.0 | 6.0 | 0.00 | 0.00 | 0.00 | 30 | 1016.0 |
| 20260503201031 | 65 | 13 | 2.0 | 5.0 | 0.00 | 0.00 | 0.00 | 30 | 1016.1 |
| 20260503200530 | 65 | 152 | 2.0 | 10.0 | 0.00 | 0.00 | 0.00 | 32 | 1016.3 |
| 20260503200255 | 65 | 314 | 2.0 | 10.0 | 0.00 | 0.00 | 0.00 | 31 | 1016.2 |
| 20260503195531 | 65 | 234 | 2.0 | 5.0 | 0.00 | 0.00 | 0.00 | 29 | 1016.1 |
| 20260503195255 | 66 | 317 | 1.0 | 4.0 | 0.00 | 0.00 | 0.00 | 35 | 1016.3 |
| 20260503194526 | 66 | 305 | 1.0 | 5.0 | 0.00 | 0.00 | 0.00 | 30 | 1016.5 |
| 20260503194026 | 66 | 302 | 2.0 | 5.0 | 0.00 | 0.00 | 0.00 | 34 | 1016.6 |
| 20260503193524 | 65 | 299 | 2.0 | 3.0 | 0.00 | 0.00 | 0.00 | 30 | 1016.7 |
| 20260503193024 | 65 | 224 | 1.0 | 3.0 | 0.00 | 0.00 | 0.00 | 31 | 1016.6 |
| 20260503192526 | 65 | 109 | 2.0 | 4.0 | 0.00 | 0.00 | 0.00 | 33 | 1016.6 |
| 20260503192254 | 65 | 108 | 2.0 | 6.0 | 0.00 | 0.00 | 0.00 | 30 | 1016.9 |
| 20260503191525 | 65 | 15 | 2.0 | 6.0 | 0.00 | 0.00 | 0.00 | 33 | 1016.8 |
| 20260503191250 | 65 | 316 | 1.0 | 6.0 | 0.00 | 0.00 | 0.00 | 33 | 1016.8 |
| 20260503190524 | 65 | 252 | 1.0 | 5.0 | 0.00 | 0.00 | 0.00 | 34 | 1016.9 |
| 20260503190249 | 64 | 264 | 2.0 | 6.0 | 0.00 | 0.00 | 0.00 | 31 | 1016.9 |
| 20260503185522 | 64 | 76 | 2.0 | 7.0 | 0.00 | 0.00 | 0.00 | 33 | 1017.0 |
| 20260503185018 | 64 | 348 | 2.0 | 7.0 | 0.00 | 0.00 | 0.00 | 32 | 1017.2 |
| 20260503184518 | 64 | 253 | 2.0 | 5.0 | 0.00 | 0.00 | 0.00 | 32 | 1017.2 |
| 20260503184018 | 64 | 252 | 2.0 | 5.0 | 0.00 | 0.00 | 0.00 | 32 | 1017.1 |
| 20260503183515 | 64 | 223 | 2.0 | 5.0 | 0.00 | 0.00 | 0.00 | 36 | 1017.1 |
| 20260503183014 | 64 | 198 | 2.0 | 9.0 | 0.00 | 0.00 | 0.00 | 35 | 1017.1 |
| 20260503182515 | 64 | 297 | 2.0 | 9.0 | 0.00 | 0.00 | 0.00 | 34 | 1017.2 |
| 20260503182009 | 63 | 242 | 2.0 | 6.0 | 0.00 | 0.00 | 0.00 | 34 | 1017.2 |
| 20260503181503 | 63 | 257 | 2.0 | 6.0 | 0.00 | 0.00 | 0.00 | 33 | 1017.2 |
| 20260503180955 | 63 | 321 | 1.0 | 5.0 | 0.00 | 0.00 | 0.00 | 35 | 1017.2 |
| 20260503180449 | 63 | 223 | 2.0 | 7.0 | 0.00 | 0.00 | 0.00 | 34 | 1017.3 |
| 20260503175944 | 62 | 145 | 2.0 | 7.0 | 0.00 | 0.00 | 0.00 | 37 | 1017.3 |
| 20260503175703 | 62 | 331 | 1.0 | 4.0 | 0.00 | 0.00 | 0.00 | 37 | 1017.3 |
| 20260503174933 | 62 | 133 | 2.0 | 7.0 | 0.00 | 0.00 | 0.00 | 37 | 1017.3 |
| 20260503174427 | 62 | 209 | 2.0 | 7.0 | 0.00 | 0.00 | 0.00 | 36 | 1017.5 |
| 20260503173920 | 63 | 116 | 1.0 | 8.0 | 0.00 | 0.00 | 0.00 | 35 | 1017.5 |
| 20260503173415 | 62 | 154 | 2.0 | 8.0 | 0.00 | 0.00 | 0.00 | 37 | 1017.6 |
| 20260503172907 | 62 | 57 | 1.0 | 4.0 | 0.00 | 0.00 | 0.00 | 40 | 1017.6 |
| 20260503172403 | 61 | 144 | 1.0 | 5.0 | 0.00 | 0.00 | 0.00 | 38 | 1017.6 |
| 20260503171857 | 61 | 17 | 2.0 | 8.0 | 0.00 | 0.00 | 0.00 | 39 | 1017.6 |
| 20260503171352 | 61 | 193 | 2.0 | 10.0 | 0.00 | 0.00 | 0.00 | 41 | 1017.7 |
| 20260503170845 | 61 | 303 | 2.0 | 10.0 | 0.00 | 0.00 | 0.00 | 36 | 1017.6 |
| 20260503170339 | 61 | 30 | 2.0 | 5.0 | 0.00 | 0.00 | 0.00 | 41 | 1017.8 |
| 20260503150656 | 57 | 163 | 1.0 | 4.0 | 0.00 | 0.00 | 0.00 | 44 | 1018.4 |
| 20260503150155 | 56 | 171 | 2.0 | 9.0 | 0.00 | 0.00 | 0.00 | 44 | 1018.5 |
| 20260503140155 | 55 | 142 | 2.0 | 10.0 | 0.00 | 0.00 | 0.00 | 52 | 1018.3 |
| 20260503131324 | 52 | 21 | 2.0 | 5.0 | 0.00 | 0.00 | 0.00 | 55 | 1018.3 |
| 20260503130554 | 52 | 330 | 2.0 | 4.0 | 0.00 | 0.00 | 0.00 | 56 | 1018.3 |
| 20260503110332 | 47 | 80 | 0.0 | 2.0 | 0.00 | 0.00 | 0.00 | 67 | 1017.2 |
| 20260503100220 | 49 | 86 | 1.0 | 3.0 | 0.00 | 0.00 | 0.00 | 64 | 1015.9 |
| 20260503090204 | 50 | 157 | 1.0 | 2.0 | 0.00 | 0.00 | 0.00 | 61 | 1015.2 |
| 20260503081202 | 52 | 5 | 1.0 | 3.0 | 0.00 | 0.00 | 0.00 | 60 | 1014.6 |
| 20260503080657 | 52 | 5 | 1.0 | 3.0 | 0.00 | 0.00 | 0.00 | 59 | 1014.6 |
| 20260503080156 | 52 | 0 | 1.0 | 3.0 | 0.00 | 0.00 | 0.00 | 59 | 1014.5 |
| 20260503072656 | 52 | 46 | 1.0 | 6.0 | 0.00 | 0.00 | 0.00 | 59 | 1014.1 |
| 20260503072156 | 52 | 121 | 1.0 | 7.0 | 0.00 | 0.00 | 0.00 | 59 | 1014.1 |
| 20260503071656 | 52 | 130 | 1.0 | 7.0 | 0.00 | 0.00 | 0.00 | 62 | 1014.2 |
| 20260503071156 | 52 | 15 | 1.0 | 5.0 | 0.00 | 0.00 | 0.00 | 60 | 1013.8 |
| 20260503070654 | 52 | 301 | 1.0 | 7.0 | 0.00 | 0.00 | 0.00 | 61 | 1013.9 |
| 20260503070154 | 52 | 307 | 2.0 | 8.0 | 0.00 | 0.00 | 0.00 | 60 | 1013.7 |
| 20260503055042 | 50 | 259 | 1.0 | 3.0 | 0.00 | 0.00 | 0.00 | 70 | 1013.5 |
| 20260503054537 | 50 | 5 | 1.0 | 5.0 | 0.00 | 0.00 | 0.00 | 72 | 1013.6 |
| 20260503054027 | 49 | 351 | 1.0 | 5.0 | 0.00 | 0.00 | 0.00 | 74 | 1013.5 |
| 20260503053523 | 48 | 290 | 0.0 | 3.0 | 0.00 | 0.00 | 0.00 | 77 | 1013.4 |
| 20260503053018 | 48 | 114 | 0.0 | 1.0 | 0.00 | 0.00 | 0.00 | 81 | 1013.6 |
| 20260503052955 | 47 | 114 | 0.0 | 0.0 | 0.00 | 0.00 | 0.00 | 85 | 1013.5 |
| 20260503052005 | 47 | 114 | 0.0 | 0.0 | 0.00 | 0.00 | 0.00 | 85 | 1013.6 |
| 20260503051459 | 47 | 114 | 0.0 | 0.0 | 0.00 | 0.00 | 0.00 | 86 | 1013.8 |
| 20260503050953 | 47 | 114 | 0.0 | 0.0 | 0.00 | 0.00 | 0.00 | 86 | 1013.6 |
| 20260503050447 | 47 | 114 | 0.0 | 0.0 | 0.00 | 0.00 | 0.00 | 87 | 1013.6 |
| 20260503045942 | 47 | 114 | 0.0 | 0.0 | 0.00 | 0.00 | 0.00 | 87 | 1013.6 |
| 20260503045442 | 47 | 114 | 0.0 | 0.0 | 0.00 | 0.00 | 0.00 | 87 | 1013.6 |
| 20260503044941 | 47 | 114 | 0.0 | 0.0 | 0.00 | 0.00 | 0.00 | 87 | 1013.8 |
| 20260503044440 | 46 | 114 | 0.0 | 0.0 | 0.00 | 0.00 | 0.00 | 87 | 1013.7 |
| 20260503043940 | 46 | 114 | 0.0 | 0.0 | 0.00 | 0.00 | 0.00 | 88 | 1013.7 |
| 20260503043440 | 46 | 114 | 0.0 | 0.0 | 0.00 | 0.00 | 0.00 | 88 | 1013.6 |
| 20260503042939 | 46 | 114 | 0.0 | 0.0 | 0.00 | 0.00 | 0.00 | 88 | 1013.6 |
| 20260503042436 | 46 | 114 | 0.0 | 0.0 | 0.00 | 0.00 | 0.00 | 88 | 1013.6 |
| 20260503041937 | 46 | 114 | 0.0 | 0.0 | 0.00 | 0.00 | 0.00 | 88 | 1013.6 |
| 20260503041436 | 46 | 114 | 0.0 | 0.0 | 0.00 | 0.00 | 0.00 | 87 | 1013.5 |
| 20260503040935 | 46 | 114 | 0.0 | 0.0 | 0.00 | 0.00 | 0.00 | 87 | 1013.5 |
| 20260503040432 | 46 | 114 | 0.0 | 0.0 | 0.00 | 0.00 | 0.00 | 87 | 1013.4 |
| 20260503035930 | 46 | 114 | 0.0 | 0.0 | 0.00 | 0.00 | 0.00 | 86 | 1013.5 |
| 20260503035432 | 46 | 114 | 0.0 | 0.0 | 0.00 | 0.00 | 0.00 | 86 | 1013.6 |